Flag for U.S.A. Weather past 2 weeks in Honolulu, Hawaii, U.S.A.

Now
80 °F

Broken clouds.


Feels Like: 82 °F
Forecast: 68 / 78 °F
Wind: 18 mph from Northeast

Location: Honolulu International Airport

Current Time: Apr 21, 2015 at 4:30:50 PM

Latest Report: Apr 21, 2015 at 3:53 PM


Visibility: 10 mi

Pressure: 29.98 "Hg

Humidity: 56%

Dew point: 63 °F

Location of HonoluluLocation

Historic Weather in Honolulu — Graph

°F

Honolulu temperature yesterday

Maximum temperature yesterday: 82 °F (at 2:53 PM)
Minimum temperature yesterday: 74 °F (at 12:53 AM)
Average temperature yesterday: 77 °F

Past Weeks' High & Low Weather Summary

 TemperatureHumidityPressure
High85 °F (Apr 11, 2:53 PM)93% (Apr 17, 2:53 AM)30.16 "Hg (Apr 17, 2:53 AM)
Low68 °F (Apr 7, 6:53 AM)41% (Apr 10, 2:53 PM)29.95 "Hg (Apr 6, 2:53 PM)
Average77 °F63%30.06 "Hg
* Reported Apr 6 2:53 PM — Apr 21 2:53 PM, Honolulu, Weather by CustomWeather, © 2015

Note: Actual official high and low records may vary slightly from our data, if they occured in-between our weather recording intervals... More about our weather records

Advertising

Honolulu weather history for previous 24 hours

 ConditionsComfort  
Time TempWeatherWind HumidityBarometerVisibility
2:53 PM
Tue, Apr 21
81 °FBroken clouds.15 mph53%29.98 "Hg10 mi
1:53 PM83 °FBroken clouds.15 mph50%29.98 "Hg10 mi
12:53 PM83 °FBroken clouds.16 mph50%30.00 "Hg10 mi
11:53 AM83 °FScattered clouds.21 mph50%30.01 "Hg10 mi
10:53 AM84 °FScattered clouds.15 mph49%30.02 "Hg10 mi
9:53 AM81 °FScattered clouds.16 mph53%30.02 "Hg10 mi
8:53 AM78 °FScattered clouds.18 mph60%30.02 "Hg10 mi
7:53 AM74 °FScattered clouds.7 mph79%30.02 "Hg10 mi
6:53 AM72 °FScattered clouds.14 mph78%30.02 "Hg10 mi
5:53 AM73 °FLight rain. Passing clouds.13 mph74%30.01 "Hg9 mi
4:53 AM73 °FLight rain. Passing clouds.13 mph76%30.00 "Hg10 mi
3:53 AM73 °FPartly cloudy.15 mph71%30.00 "Hg10 mi
2:53 AM73 °FPartly cloudy.13 mph71%30.01 "Hg10 mi
1:53 AM73 °FPartly cloudy.15 mph71%30.04 "Hg10 mi
12:53 AM73 °FPassing clouds.14 mph74%30.06 "Hg10 mi
11:53 PM
Mon, Apr 20
74 °FPassing clouds.15 mph71%30.07 "Hg10 mi
10:53 PM74 °FPassing clouds.18 mph69%30.08 "Hg10 mi
9:53 PM75 °FPassing clouds.17 mph66%30.08 "Hg10 mi
8:53 PM75 °FPassing clouds.16 mph64%30.07 "Hg10 mi
7:53 PM76 °FPassing clouds.13 mph62%30.05 "Hg10 mi
6:53 PM76 °FPassing clouds.16 mph62%30.05 "Hg10 mi
5:53 PM79 °FScattered clouds.21 mph52%30.03 "Hg10 mi
4:53 PM80 °FScattered clouds.23 mph49%30.03 "Hg10 mi
Weather by CustomWeather, © 2015

See weather overviewHow to use our weather pages